Tracking 19846 objects as of 18-Sep-2019
HD Live streaming from Space Station
objects crossing your sky now

FENGYUN 1C DEB

Track FENGYUN 1C DEB now!
10-day predictions


NORAD ID: 37895
Int'l Code: 1999-025EMU
Perigee: 847.1 km
Apogee: 1,339.2 km
Inclination: 99.2 °
Period: 107.0 minutes
Semi major axis: 7464 km
RCS: 0.003 m2 (small)
Launch date: May 10, 1999
Source: People's Republic of China (PRC)
Launch site: Taiyaun Space Center, China (TSC)

Note: This is SATELLITE DEBRIS
aabbcc
Your satellite tracking list
Your tracking list is empty




NASA's NSSDC Master Catalog

Two Line Element Set (TLE):
1 37895U 99025EMU 19246.83685150  .00000575  00000-0  73560-3 0  9996
2 37895  99.1782 262.2803 0329667 172.6664 187.9467 13.46269062477715
Source of the keplerian elements: AFSPC